TimeMST,TemperatureF,Dew PointF,Humidity,Sea Level PressureIn,VisibilityMPH,Wind Direction,Wind SpeedMPH,Gust SpeedMPH,PrecipitationIn,Events,Conditions,WindDirDegrees,DateUTC
12:53 AM,1.9,-4.0,76,30.06,10.0,West,5.8,-,N/A,,Clear,280,2013-01-12 07:53:00
1:53 AM,-0.0,-5.1,79,30.10,10.0,WNW,5.8,-,N/A,,Clear,300,2013-01-12 08:53:00
2:53 AM,-2.0,-7.1,79,30.12,10.0,NW,4.6,-,N/A,,Clear,310,2013-01-12 09:53:00
3:53 AM,1.0,-5.1,75,30.12,10.0,West,8.1,-,N/A,,Clear,280,2013-01-12 10:53:00
4:53 AM,-0.4,-5.8,78,29.90,10.0,WNW,10.4,-,N/A,,Clear,300,2013-01-12 11:53:00
5:53 AM,-0.9,-7.1,75,30.16,10.0,NW,8.1,-,N/A,,Clear,310,2013-01-12 12:53:00
6:46 AM,-0.4,-7.6,72,29.97,10.0,WNW,4.6,-,N/A,,Mostly Cloudy,290,2013-01-12 13:46:00
6:53 AM,-2.0,-7.1,79,30.21,10.0,West,3.5,-,N/A,,Mostly Cloudy,270,2013-01-12 13:53:00
7:06 AM,-0.4,-5.8,78,29.99,10.0,WNW,6.9,-,N/A,,Scattered Clouds,300,2013-01-12 14:06:00
7:53 AM,6.1,-0.9,73,30.22,10.0,WNW,15.0,-,N/A,,Partly Cloudy,300,2013-01-12 14:53:00
8:53 AM,8.1,-0.0,70,30.25,10.0,WNW,13.8,-,N/A,,Clear,290,2013-01-12 15:53:00
9:53 AM,10.0,1.0,67,30.27,10.0,WNW,20.7,24.2,N/A,,Clear,290,2013-01-12 16:53:00
10:42 AM,10.4,1.4,67,30.05,10.0,NW,18.4,-,N/A,,Mostly Cloudy,310,2013-01-12 17:42:00
10:53 AM,10.9,1.9,67,30.25,10.0,WNW,19.6,27.6,N/A,,Scattered Clouds,300,2013-01-12 17:53:00
11:01 AM,10.4,1.4,67,30.03,10.0,NW,20.7,27.6,N/A,,Mostly Cloudy,320,2013-01-12 18:01:00
11:36 AM,12.2,1.4,62,30.02,10.0,NW,19.6,-,N/A,,Scattered Clouds,310,2013-01-12 18:36:00
11:53 AM,12.0,1.9,64,30.23,10.0,NW,17.3,26.5,N/A,,Scattered Clouds,310,2013-01-12 18:53:00
12:30 PM,12.2,3.2,67,30.01,10.0,WNW,19.6,-,N/A,,Mostly Cloudy,300,2013-01-12 19:30:00
12:53 PM,12.0,1.9,64,30.23,10.0,WNW,16.1,-,N/A,,Mostly Cloudy,300,2013-01-12 19:53:00
1:10 PM,12.2,3.2,67,30.01,10.0,NW,17.3,25.3,N/A,,Scattered Clouds,310,2013-01-12 20:10:00
1:18 PM,12.2,3.2,67,30.01,10.0,NW,18.4,-,N/A,,Mostly Cloudy,310,2013-01-12 20:18:00
1:53 PM,12.9,3.0,65,30.24,10.0,NW,17.3,24.2,N/A,,Scattered Clouds,320,2013-01-12 20:53:00
2:53 PM,12.9,1.9,62,30.25,10.0,NNW,15.0,23.0,N/A,,Clear,330,2013-01-12 21:53:00
3:53 PM,10.9,1.0,64,30.25,10.0,NNW,11.5,-,N/A,,Clear,340,2013-01-12 22:53:00
4:53 PM,6.1,-0.9,73,30.27,10.0,NNW,8.1,-,N/A,,Clear,330,2013-01-12 23:53:00
5:53 PM,1.9,-2.9,80,30.29,10.0,WNW,6.9,-,N/A,,Clear,300,2013-01-13 00:53:00
6:53 PM,-0.9,-5.1,83,30.32,10.0,East,3.5,-,N/A,,Clear,80,2013-01-13 01:53:00
7:53 PM,1.0,-2.9,83,30.28,10.0,Calm,Calm,-,N/A,,Clear,0,2013-01-13 02:53:00
8:53 PM,-0.9,-6.0,79,30.29,10.0,Calm,Calm,-,N/A,,Scattered Clouds,0,2013-01-13 03:53:00
9:53 PM,1.0,-4.0,79,30.28,10.0,NNW,4.6,-,N/A,,Overcast,340,2013-01-13 04:53:00
10:53 PM,1.9,-2.9,80,30.28,8.0,NW,3.5,-,N/A,,Overcast,320,2013-01-13 05:53:00
11:53 PM,1.9,-2.0,83,30.28,6.0,NNW,5.8,-,0.00,Snow,Light Snow,340,2013-01-13 06:53:00